User: anonymous   Login
Location: Natural Bridges National Monument
(37.6093°N, 109.9767°W)
Time: 05:36:37
(UTC-07:00)
Language:

Cosmos 1727 Rocket - Orbit

View from above orbital plane
View from above orbital plane
View from above satellite
View from above satellite

Ground track
Ground track

The orbit data is extracted from the following two-line orbital elements,

1 16511U 86008B   17053.77262823 +.00000061 +00000-0 +47731-4 0  9992
2 16511 082.9454 304.7721 0022955 241.1994 179.9646 13.75810663560288
Epoch (UTC): 22 February 2017 18:32:35
Eccentricity: 0.0022955
inclination: 82.9454°
perigee height: 962 km
apogee height: 995 km
right ascension of ascending node: 304.7721°
argument of perigee: 241.1994°
revolutions per day: 13.75810663
mean anomaly at epoch: 179.9646°
orbit number at epoch: 56028

The dashed part of the orbit path shows where the satellite is in the earth's shadow,  

DLR